Regional Weather Roundup
Issued by NWS Green Bay, WI

Home | Current Version | Previous Version | Text Only | Print | Product List | Glossary On
Versions: 1 2 3 4 5 6 7 8 9 10 11 12 13 14 15 16 17 18 19 20 21 22 23 24 25 26 27 28 29 30 31 32 33 34 35 36 37 38 39 40 41 42 43 44 45 46 47 48 49 50
000
ASUS43 KGRB 211010
RWRGRB

NORTH-CENTRAL AND NORTHEAST WISCONSIN REGIONAL WEATHER ROUNDUP
NATIONAL WEATHER SERVICE GREEN BAY WI
500 AM CDT THU AUG 21 2014

WIZ005-009-010>012-018-019-211100-
NORTH CENTRAL WISCONSIN

CITY           SKY/WX    TMP DP  RH WIND       PRES   REMARKS
IRONWOOD       CLEAR     54  54 100 E5        29.91F
MANITOWISH WTR CLOUDY    60  60 100 SE6       29.95F FOG
ARBOR VITAE    CLOUDY    62  59  91 SE5       29.96S
EAGLE RIVER    CLEAR     59  59 100 CALM      29.96S
LAND O LAKES   MOCLDY    60  60 100 CALM      29.97F
RHINELANDER    FOG       59  59 100 SE5       29.96F VSB 1/2
PHILLIPS       CLOUDY    58  58  99 E5        29.93S
ANTIGO         FOG       60  60 100 CALM      29.96F VSB 1/2
TOMAHAWK       FOG       51  50  97 CALM      29.95S VSB 1/2
MERRILL        CLEAR     57  57 100 CALM      29.95R FOG
$$

WIZ013-073-211100-
NORTHEAST WISCONSIN

CITY           SKY/WX    TMP DP  RH WIND       PRES   REMARKS
IRON MOUNTAIN  CLOUDY    63  60  90 CALM      29.95F
MARINETTE      MOCLDY    63  61  94 CALM      29.94S VSB 1/4
OCONTO         CLOUDY    57  57 100 CALM      29.94S
$$

WIZ017-030-035>037-045-211100-
CENTRAL WISCONSIN

CITY           SKY/WX    TMP DP  RH WIND       PRES   REMARKS
MEDFORD        CLOUDY    61  60  97 E5        29.93S
WAUSAU         CLOUDY    60  59  96 E7        29.93S
MOSINEE        MOCLDY    59  59 100 E6        29.94F FOG
MARSHFIELD     PTCLDY    63  61  93 E5        29.91F FOG
WISC RAPIDS    MOCLDY    64  62  93 E5        29.92F
STEVENS POINT  CLOUDY    60  60  99 E5        29.93F FOG
WAUPACA        CLOUDY    65  63  94 CALM      29.94R FOG
SHAWANO        FOG       61  59  95 CALM      29.95S VSB 1/4
CLINTONVILLE   FOG       57  57 100 CALM      29.94S VSB<1/4
$$

WIZ038-039-048-051-211100-
FOX VALLEY

CITY           SKY/WX    TMP DP  RH WIND       PRES   REMARKS
NWS GREEN BAY  CLEAR     58  58 100 CALM      29.94S FOG
APPLETON       CLEAR     63  61  94 E3        29.95S
OSHKOSH        PTCLDY    64  62  93 E5        29.93F
FOND DU LAC    PTCLDY    64  60  87 SE6       29.94S
$$

WIZ022-050-052-211100-
EAST CENTRAL WISCONSIN

CITY           SKY/WX    TMP DP  RH WIND       PRES   REMARKS
STURGEON BAY   CLOUDY    61  57  88 S3        29.96S VSB 1/4
MANITOWOC      MOCLDY    63  63 100 CALM      29.95S FOG
SHEBOYGAN      FOG       59  58  96 CALM      29.94F VSB 1/4
$$

LMZ563-521-522-541>543-211100-
LAKESHORE

STATION/POSITION TIME  TEMP    WIND        PRES    VSBY  WAVE
                       AIR SEA DIR/SP/G                  HT/PER
                 (UTC) (F)     (DEG/KT/KT) (MB)    (MI)  (FT/S)
SHEBOYGAN LKSHOR 1000   66 65  120/  3/  3 1014.0F
KEWAUNEE LKSHORE 1000   60     290/  1/  2 1013.2S
NORTHPORT PIER   1000   64        CALM     1014.2S
N MID LAKE BUOY  1000   63 63  180/  2/  2 1014.0F         0
S GREEN BAY BUOY 1000   66     VRB  4      1014.9S
SISTER BAY LKSHO 1000   65        CALM       N/A
CHAMBERS ISLAND  1000   64     170/  2/  3 1014.6F
MENOMINEE LKSHOR 1000   66     170/  4/  5 1014.6S
$$



USA.gov is the U.S. government's official web portal to all federal, state and local government web resources and services.